Location: Houston
(29.7630°N, 95.3630°W)
Time: 23:25:09
(UTC-05:00)

Saudisat 1A - Visible Passes

Search period start: 01 September 2014 00:00
Search period end: 11 September 2014 00:00
Orbit: 600 x 607 km, 64.6° (Epoch: 01 September)

Date Brightness Start Highest point End Pass type
(mag) Time Alt. Az. Time Alt. Az. Time Alt. Az.
03 Sep 11.5 06:27:04 10° NE 06:27:58 11° NE 06:28:52 10° ENE visible
04 Sep 10.9 06:37:17 10° N 06:40:35 20° NE 06:43:53 10° ESE visible
04 Sep 9.4 20:38:16 10° SSE 20:40:31 19° SE 20:40:31 19° SE visible
04 Sep 10.7 22:17:07 10° WSW 22:17:41 13° WSW 22:17:41 13° WSW visible
05 Sep 8.3 20:49:32 10° S 20:53:42 44° ESE 20:57:53 10° NE visible
05 Sep 10.9 22:31:00 10° W 22:33:27 15° NW 22:35:55 10° NNW visible
06 Sep 8.0 21:01:34 10° SSW 21:05:57 84° WNW 21:10:23 10° NNE visible
07 Sep 11.1 05:35:25 10° NNE 05:37:57 15° NE 05:40:29 10° E visible
07 Sep 9.4 21:14:12 10° SW 21:18:19 39° WNW 21:22:27 10° N visible
08 Sep 10.2 05:46:40 10° N 05:50:29 28° ENE 05:54:18 10° ESE visible
08 Sep 10.7 21:27:34 10° WSW 21:30:48 20° NW 21:34:03 10° N visible
09 Sep 8.6 05:58:33 10° NNW 06:02:54 59° ENE 06:07:14 10° SE visible
09 Sep 8.0 19:59:06 10° SSW 20:03:26 67° ESE 20:07:49 10° NNE visible
09 Sep 11.4 21:42:49 10° WNW 21:43:25 10° NW 21:44:01 10° NW visible
10 Sep 11.3 04:34:11 10° NE 04:35:15 11° NE 04:36:20 10° ENE visible
10 Sep 8.0 06:10:50 10° NW 06:15:12 63° WSW 06:19:32 10° SSE visible
10 Sep 8.8 20:11:26 10° SW 20:15:45 56° WNW 20:20:05 10° NNE visible
